When you browse on this site, cookies collect data to enhance your experience and personalize the content and advertising you see.
Visit our Privacy Policy to learn more. By continuing to use the site, you agree to this use of cookies and data.
  • In Hungary
  • List of Countries
  • For 7 days
  • Water Temperature
  • Satellite Maps
  • Weather Map
  • News
  • Weather Widgets
  • user-avatar
    Login

    Hourly Weather Andria

    Today, 19 November, Monday

    Time Temperature Precipitation Wind Pressure Humidity
    00:00 +8°C° 0 mm 3 mps 744 mmHg 83%
    01:00 +8°C° 0 mm 3 mps 744 mmHg 85%
    02:00 +8°C° 0 mm 3 mps 744 mmHg 84%
    03:00 +8°C° 0 mm 2 mps 744 mmHg 84%
    04:00 +8°C° 0 mm 2 mps 744 mmHg 83%
    05:00 +8°C° 0 mm 2 mps 744 mmHg 81%
    06:00 +8°C° 0 mm 2 mps 744 mmHg 80%
    07:00 +9°C° 0 mm 1 mps 744 mmHg 78%
    08:00 +9°C° 0.1 mm 2 mps 744 mmHg 76%
    09:00 +10°C° 0.1 mm 3 mps 744 mmHg 74%
    10:00 +11°C° 0.1 mm 3 mps 744 mmHg 72%
    11:00 +11°C° 0.7 mm 4 mps 744 mmHg 76%
    12:00 +11°C° 0.7 mm 4 mps 743 mmHg 79%
    13:00 +11°C° 0.7 mm 4 mps 743 mmHg 82%
    14:00 +12°C° 1 mm 5 mps 743 mmHg 84%
    15:00 +12°C° 1 mm 5 mps 742 mmHg 86%
    16:00 +13°C° 1 mm 5 mps 742 mmHg 87%
    17:00 +13°C° 0.1 mm 6 mps 741 mmHg 86%
    18:00 +12°C° 0.1 mm 7 mps 741 mmHg 85%
    19:00 +12°C° 0.1 mm 7 mps 740 mmHg 84%
    20:00 +14°C° 0.2 mm 7 mps 740 mmHg 83%
    21:00 +14°C° 0.2 mm 7 mps 740 mmHg 82%
    22:00 +14°C° 0.2 mm 7 mps 740 mmHg 80%
    23:00 +14°C° 0.1 mm 7 mps 740 mmHg 80%

    Tomorrow, 20 November, Tuesday

    Time Temperature Precipitation Wind Pressure Humidity
    00:00 +14°C° 0.1 mm 7 mps 740 mmHg 80%
    01:00 +15°C° 0.1 mm 7 mps 740 mmHg 80%
    02:00 +15°C° 0 mm 7 mps 739 mmHg 79%
    03:00 +15°C° 0 mm 7 mps 739 mmHg 79%
    04:00 +15°C° 0 mm 7 mps 739 mmHg 79%
    05:00 +14°C° 0 mm 7 mps 739 mmHg 79%
    06:00 +14°C° 0 mm 6 mps 739 mmHg 80%
    07:00 +14°C° 0 mm 6 mps 740 mmHg 80%
    08:00 +16°C° 0 mm 6 mps 740 mmHg 74%
    09:00 +17°C° 0 mm 6 mps 741 mmHg 67%
    10:00 +20°C° 0 mm 6 mps 741 mmHg 61%
    11:00 +20°C° 0 mm 5 mps 741 mmHg 56%
    12:00 +21°C° 0 mm 5 mps 741 mmHg 51%
    13:00 +22°C° 0 mm 4 mps 741 mmHg 46%
    14:00 +21°C° 0 mm 3 mps 741 mmHg 49%
    15:00 +20°C° 0 mm 2 mps 741 mmHg 52%
    16:00 +21°C° 0 mm 1 mps 741 mmHg 55%
    17:00 +20°C° 0.2 mm 1 mps 741 mmHg 59%
    18:00 +18°C° 0.2 mm 2 mps 742 mmHg 64%
    19:00 +17°C° 0.2 mm 2 mps 742 mmHg 69%
    20:00 +17°C° 0.8 mm 2 mps 742 mmHg 73%
    21:00 +16°C° 0.8 mm 2 mps 742 mmHg 77%
    22:00 +16°C° 0.8 mm 2 mps 743 mmHg 81%
    23:00 +15°C° 0.7 mm 2 mps 742 mmHg 83%

    Day after tomorrow, 21 November, Wednesday

    Time Temperature Precipitation Wind Pressure Humidity
    00:00 +14°C° 0.7 mm 3 mps 742 mmHg 85%
    01:00 +14°C° 0.7 mm 4 mps 742 mmHg 86%
    02:00 +14°C° 0.2 mm 4 mps 742 mmHg 87%
    03:00 +13°C° 0.2 mm 5 mps 743 mmHg 88%
    04:00 +13°C° 0.2 mm 5 mps 743 mmHg 88%
    05:00 +13°C° 0.2 mm 5 mps 743 mmHg 89%
    06:00 +13°C° 0.2 mm 5 mps 744 mmHg 89%
    07:00 +13°C° 0.2 mm 5 mps 744 mmHg 89%
    08:00 +13°C° 0.1 mm 5 mps 745 mmHg 84%
    09:00 +14°C° 0.1 mm 5 mps 745 mmHg 79%
    10:00 +15°C° 0.1 mm 5 mps 746 mmHg 74%
    11:00 +16°C° 0 mm 5 mps 746 mmHg 69%
    12:00 +17°C° 0 mm 5 mps 746 mmHg 65%
    13:00 +19°C° 0 mm 5 mps 746 mmHg 61%
    14:00 +17°C° 0 mm 5 mps 746 mmHg 62%
    15:00 +18°C° 0 mm 4 mps 747 mmHg 64%
    16:00 +17°C° 0 mm 4 mps 747 mmHg 66%
    17:00 +16°C° 0 mm 3 mps 747 mmHg 70%
    18:00 +14°C° 0 mm 3 mps 748 mmHg 75%
    19:00 +13°C° 0 mm 3 mps 748 mmHg 79%
    20:00 +13°C° 0 mm 3 mps 748 mmHg 80%
    21:00 +13°C° 0 mm 3 mps 749 mmHg 81%
    22:00 +12°C° 0 mm 3 mps 749 mmHg 83%
    23:00 +12°C° 0 mm 3 mps 749 mmHg 83%

    22 November, Thursday

    Time Temperature Precipitation Wind Pressure Humidity
    00:00 +12°C° 0 mm 3 mps 749 mmHg 83%
    01:00 +12°C° 0 mm 3 mps 749 mmHg 83%
    02:00 +12°C° 0 mm 3 mps 749 mmHg 84%
    03:00 +13°C° 0 mm 2 mps 749 mmHg 84%
    04:00 +12°C° 0 mm 2 mps 749 mmHg 84%
    05:00 +12°C° 0 mm 2 mps 750 mmHg 85%
    06:00 +12°C° 0 mm 2 mps 750 mmHg 85%
    07:00 +12°C° 0 mm 2 mps 750 mmHg 86%
    08:00 +14°C° 0 mm 2 mps 751 mmHg 80%
    09:00 +15°C° 0 mm 2 mps 751 mmHg 74%
    10:00 +17°C° 0 mm 2 mps 751 mmHg 68%
    11:00 +17°C° 0 mm 2 mps 751 mmHg 64%
    12:00 +18°C° 0 mm 2 mps 751 mmHg 60%
    13:00 +19°C° 0 mm 2 mps 751 mmHg 56%
    14:00 +19°C° 0.1 mm 2 mps 751 mmHg 59%
    15:00 +18°C° 0.1 mm 2 mps 751 mmHg 63%
    16:00 +17°C° 0.1 mm 2 mps 751 mmHg 67%
    17:00 +16°C° 0.3 mm 2 mps 752 mmHg 71%
    18:00 +15°C° 0.3 mm 1 mps 752 mmHg 76%
    19:00 +14°C° 0.3 mm 1 mps 752 mmHg 81%
    20:00 +14°C° 0.1 mm 1 mps 753 mmHg 82%
    21:00 +14°C° 0.1 mm 1 mps 753 mmHg 83%
    22:00 +14°C° 0.1 mm 1 mps 753 mmHg 84%
    23:00 +13°C° 0 mm 2 mps 753 mmHg 84%

    23 November, Friday

    Time Temperature Precipitation Wind Pressure Humidity
    00:00 +13°C° 0 mm 2 mps 753 mmHg 85%
    01:00 +13°C° 0 mm 2 mps 753 mmHg 86%
    02:00 +13°C° 0.1 mm 2 mps 754 mmHg 87%
    03:00 +11°C° 0.1 mm 3 mps 754 mmHg 87%
    04:00 +11°C° 0.1 mm 3 mps 754 mmHg 88%
    05:00 +11°C° 0.1 mm 3 mps 754 mmHg 89%
    06:00 +11°C° 0.1 mm 3 mps 754 mmHg 89%
    07:00 +11°C° 0.1 mm 3 mps 755 mmHg 90%
    08:00 +12°C° 0.1 mm 3 mps 755 mmHg 85%
    09:00 +13°C° 0.1 mm 3 mps 756 mmHg 80%
    10:00 +16°C° 0.1 mm 3 mps 756 mmHg 75%
    11:00 +16°C° 0 mm 3 mps 756 mmHg 71%
    12:00 +17°C° 0 mm 3 mps 756 mmHg 68%
    13:00 +17°C° 0 mm 3 mps 756 mmHg 65%
    14:00 +17°C° 0 mm 3 mps 756 mmHg 67%
    15:00 +16°C° 0 mm 3 mps 756 mmHg 70%
    16:00 +16°C° 0 mm 3 mps 756 mmHg 72%
    17:00 +14°C° 0 mm 3 mps 756 mmHg 76%
    18:00 +14°C° 0 mm 2 mps 756 mmHg 80%
    19:00 +13°C° 0 mm 2 mps 756 mmHg 83%
    20:00 +13°C° 0 mm 2 mps 757 mmHg 85%
    21:00 +13°C° 0 mm 2 mps 757 mmHg 86%
    22:00 +13°C° 0 mm 2 mps 757 mmHg 87%
    23:00 +12°C° 0 mm 2 mps 757 mmHg 88%

    24 November, Saturday

    Time Temperature Precipitation Wind Pressure Humidity
    00:00 +12°C° 0 mm 2 mps 757 mmHg 88%
    01:00 +12°C° 0 mm 2 mps 757 mmHg 89%
    02:00 +12°C° 0 mm 2 mps 756 mmHg 89%
    03:00 +10°C° 0 mm 2 mps 756 mmHg 89%
    04:00 +10°C° 0 mm 2 mps 756 mmHg 89%
    05:00 +10°C° 0 mm 2 mps 756 mmHg 89%
    06:00 +11°C° 0 mm 1 mps 756 mmHg 89%
    07:00 +11°C° 0 mm 1 mps 756 mmHg 88%
    08:00 +12°C° 0 mm 1 mps 756 mmHg 80%
    09:00 +14°C° 0 mm 1 mps 757 mmHg 72%
    10:00 +16°C° 0 mm 1 mps 757 mmHg 65%
    11:00 +18°C° 0 mm 1 mps 756 mmHg 60%
    12:00 +19°C° 0 mm 1 mps 756 mmHg 55%
    13:00 +19°C° 0 mm 1 mps 756 mmHg 50%
    14:00 +18°C° 0 mm 2 mps 755 mmHg 53%
    15:00 +17°C° 0 mm 2 mps 755 mmHg 56%
    16:00 +17°C° 0 mm 2 mps 755 mmHg 59%
    17:00 +16°C° 0 mm 3 mps 755 mmHg 63%
    18:00 +14°C° 0 mm 3 mps 755 mmHg 67%
    19:00 +13°C° 0 mm 3 mps 755 mmHg 71%
    20:00 +13°C° 0 mm 3 mps 755 mmHg 72%
    21:00 +13°C° 0 mm 3 mps 755 mmHg 73%
    22:00 +12°C° 0 mm 3 mps 755 mmHg 74%
    23:00 +12°C° 0 mm 3 mps 754 mmHg 74%
    Show more